Current weather by "City, St" or "zip code"  
 
Advertise Here

Current Conditions: Somerville - Fayette County Airport, TN

NULL


72.0 F

Last Updated on Sep 16 2021, 10:55 pm CDT
Humidity: 94%
Wind Speed: N 0.0 mph
Barometer 29.98 in
Dewpoint: 69.8 F
Visibility: 10.00 mi
Precip: --
Heat Index: NA
Wind Chill: NA
Current conditions at:

Somerville - Fayette County Airport, TN (KFYE)

Lat: 35.2061 Lon: 89.3929

Local Radar Image active severe weather and emergency alerts image image weather storm and storm spotter reports image weather observation monitoring service image
Local
Radar
Active
Alerts
Storm Reports Obs
Monitoring

Sign-up For Email & Text Message Weather Alert Notification Services



Advertise Here

Observation History for Somerville - Fayette County Airport, TN


Time Wind
(mph)
Vis
(mi)
Weather Precip (in) Temperature (F) Relative
Humidity
Wind
Chill
(F)
Heat
Index
(F)
Pressure
Air Dwpt altimeter
(in)
sea level
(mb)
Rmks
10:55 pm CDT N 0.0 10.00 NULL -- 72.0 69.8 94% NA NA 29.98 M
9:55 pm CDT N 0.0 10.00 NULL -- 72.0 69.8 94% NA NA 29.99 M
8:55 pm CDT N 0.0 10.00 NULL -- 73.0 69.8 89% NA NA 29.98 M
7:55 pm CDT N 0.0 10.00 NULL -- 73.0 69.8 89% NA NA 29.97 M
6:55 pm CDT N 0.0 10.00 NULL -- 77.0 69.8 79% NA NA 29.96 M
6:35 pm CDT N 0.0 10.00 NULL -- 79.0 69.8 74% NA NA 29.95 M
5:55 pm CDT N 0.0 10.00 NULL -- 81.0 69.8 70% NA 85 29.95 M
4:55 pm CDT 4.6 10.00 NULL -- 79.0 69.8 74% NA NA 29.95 M
3:55 pm CDT 3.5 10.00 NULL -- 81.0 69.8 70% NA 85 29.95 M
2:55 pm CDT 4.6 10.00 NULL -- 81.0 68.0 66% NA 84 29.96 M
1:55 pm CDT N 0.0 10.00 NULL -- 79.0 68.0 70% NA NA 29.98 M
11:55 am CDT N 0.0 10.00 NULL -- 77.0 68.0 74% NA NA 30.00 M
10:55 am CDT N 0.0 10.00 NULL -- 77.0 68.0 74% NA NA 30.01 M
9:55 am CDT N 0.0 10.00 NULL -- 77.0 69.8 79% NA NA 30.00 M
8:55 am CDT N 0.0 10.00 NULL -- 72.0 71.6 100% NA NA 30.00 M
7:55 am CDT N 0.0 9.00 NULL -- 70.0 69.8 100% NA NA 29.99 M
6:55 am CDT N 0.0 7.00 NULL -- 68.0 68.0 100% NA NA 29.97 M
5:55 am CDT N 0.0 2.00 Fog/Mist -- 66.0 66.2 100% NA NA 29.96 M
4:55 am CDT N 0.0 5.00 Fog/Mist -- 66.0 66.2 100% NA NA 29.95 M
3:55 am CDT N 0.0 8.00 NULL -- 68.0 68.0 100% NA NA 29.94 M
2:55 am CDT N 0.0 8.00 NULL -- 68.0 68.0 100% NA NA 29.94 M
1:55 am CDT N 0.0 10.00 NULL -- 68.0 68.0 100% NA NA 29.94 M
12:55 am CDT N 0.0 10.00 NULL -- 70.0 69.8 100% NA NA 29.95 M
11:55 pm CDT N 0.0 10.00 NULL -- 70.0 69.8 100% NA NA 29.96 M

Regional Weather Observation


COVINGTON MUNI, TN (KM04)

A Few Clouds
70.0 F

Somerville - Fayette County Airport, TN (KFYE)

NULL
72.0 F

Memphis International Airport, TN (KMEM)

Mostly Cloudy
77.0 F

Blytheville, Blytheville Municipal Airport, AR (KHKA)

Fair
71.0 F

Olive Branch, Olive Branch Airport, MS (KOLV)

Mostly Cloudy
73.0 F

West Memphis, West Memphis Municipal Airport, AR (KAWM)

Fair
76.0 F
Advertise Here


Advertise Here